PROBA-1 1 26958U 01049B 26163.82215407 .00002063 00000+0 13584-3 0 9995 2 26958 97.9607 172.2015 0055949 136.4277 224.1390 15.07478879342961 CUTE-1 (CO-55) 1 27844U 03031E 26162.97931317 .00000243 00000+0 12418-3 0 9996 2 27844 98.6735 171.6035 0009162 193.3973 166.6964 14.24332546190935 CUBESAT XI-IV (CO-57) 1 27848U 03031J 26162.96515925 .00000209 00000+0 11102-3 0 9993 2 27848 98.6768 171.3067 0008710 213.1482 146.9152 14.23618048190631 APRIZESAT 4 1 35684U 09041D 26163.19966767 .00000630 00000+0 81734-4 0 9994 2 35684 98.1411 238.4206 0042747 339.4813 20.4682 14.83873191910627 APRIZESAT 3 1 35686U 09041F 26163.15019648 .00001389 00000+0 12416-3 0 9991 2 35686 98.2052 316.1331 0062747 83.9418 276.8948 14.96226409915623 PROBA-2 1 36037U 09059B 26163.77006035 .00000187 00000+0 54136-4 0 9996 2 36037 98.2449 347.1841 0012073 297.2301 62.7665 14.54860693880882 APRIZESAT 5 1 37792U 11044E 26163.75101934 .00001104 00000+0 14648-3 0 9997 2 37792 98.2455 96.6657 0052696 18.5031 341.8082 14.81067227798130 APRIZESAT 6 1 37793U 11044F 26163.28038403 .00000694 00000+0 10499-3 0 9999 2 37793 98.2370 73.6798 0044459 101.2579 21.3583 14.76909083796428 PROBA-V 1 39159U 13021A 26163.83178378 .00000065 00000+0 46614-4 0 9992 2 39159 98.3582 142.6534 0004976 133.8058 226.3534 14.23596192680497 APRIZESAT 7 1 39416U 13066A 26163.86048177 .00000888 00000+0 93384-4 0 9992 2 39416 97.7708 117.1426 0034670 223.9352 135.9109 14.91555442680586 APRIZESAT 8 1 39425U 13066K 26163.83672405 .00000941 00000+0 10788-3 0 9992 2 39425 97.8221 111.3653 0044593 301.3371 58.3485 14.87645103679023 BUGSAT-1 (TITA) 1 40014U 14033E 26163.81072124 .00006497 00000+0 34342-3 0 9997 2 40014 98.0422 256.1035 0027633 193.4992 166.5502 15.15538234655172 SAUDISAT 4 1 40016U 14033G 26163.85818486 .00000652 00000+0 92424-4 0 9995 2 40016 97.7577 310.1428 0046244 87.6414 273.0092 14.79539319645430 APRIZESAT 9 1 40018U 14033J 26163.86363929 .00000620 00000+0 98538-4 0 9992 2 40018 97.9054 297.1680 0065381 213.1861 146.5240 14.74208985642920 APRIZESAT 10 1 40019U 14033K 26163.84092593 .00000391 00000+0 69412-4 0 9991 2 40019 97.9644 290.8974 0077464 287.9723 71.3052 14.70879002641614 TECHDEMOSAT-1 (TDS-1) 1 40076U 14037H 26162.93475249 .00007420 00000+0 42191-3 0 9994 2 40076 98.3805 154.6269 0004653 290.2755 69.7973 15.13214425647436 TECHNOSAT 1 42829U 17042E 26162.99659051 .00003373 00000+0 24149-3 0 9998 2 42829 97.4264 320.8526 0018789 110.6510 249.6734 15.04923285485924 FLYING LAPTOP 1 42831U 17042G 26163.85273672 .00005297 00000+0 41648-3 0 9998 2 42831 97.4663 319.5533 0019379 135.6939 224.5841 15.01121887485804 HAWK-A 1 43765U 18099H 26163.09753066 .00005876 00000+0 23773-3 0 9996 2 43765 97.3921 215.3996 0033275 304.7502 55.0603 15.24583080412321 HAWK-B 1 43794U 18099AN 26163.11301207 .00005308 00000+0 22740-3 0 9990 2 43794 97.3971 214.8405 0030821 323.5913 36.3227 15.22770433412261 HAWK-C 1 43799U 18099AT 26163.08557215 .00007081 00000+0 25603-3 0 9994 2 43799 97.3897 216.2748 0038906 304.5704 55.1866 15.28032135413139 SALSAT 1 46495U 20068K 26163.76299022 .00008507 00000+0 29790-3 0 9998 2 46495 97.8846 166.5583 0008406 326.8032 33.2678 15.29738569314684 HAWK-2C 1 47502U 21006CT 26163.06631973 .00005922 00000+0 17890-3 0 9995 2 47502 97.2283 207.4783 0006091 204.3939 155.7017 15.34601639298719 HAWK-2A 1 47505U 21006CW 26163.85132267 .00006734 00000+0 20293-3 0 9990 2 47505 97.2325 208.9228 0005612 204.8593 155.2381 15.34627783298838 HAWK-2B 1 47508U 21006CZ 26163.71669503 .00007879 00000+0 23638-3 0 9993 2 47508 97.2196 207.1297 0006156 203.6581 156.4381 15.34707920298815 HAWK-3B 1 48931U 21059BE 26163.79723041 .00045699 00000+0 39300-3 0 9993 2 48931 97.6662 0.0917 0003545 352.4657 7.6550 15.69207160277162 HAWK-3C 1 48948U 21059BX 26163.09544666 .00047640 00000+0 41062-3 0 9994 2 48948 97.6789 5.0020 0003863 356.7867 3.3368 15.69141442277051 HAWK-3A 1 48957U 21059CG 26163.79680657 .00048203 00000+0 41413-3 0 9998 2 48957 97.6728 2.9781 0003932 355.0260 5.0961 15.69217681277169 HAWK-5C 1 52754U 22057Y 26163.07732009 .00017817 00000+0 30590-3 0 9998 2 52754 97.6585 322.4163 0005289 97.9523 262.2329 15.51213870225553 HAWK-5B 1 52756U 22057AA 26162.94815621 .00017354 00000+0 29802-3 0 9997 2 52756 97.6592 320.6276 0005935 91.3520 268.8412 15.51208900225532 HAWK-5A 1 52757U 22057AB 26163.07695539 .00017679 00000+0 30355-3 0 9992 2 52757 97.6591 321.5962 0005875 94.1158 266.0765 15.51210279225550 HAWK-6B 1 55324U 23011A 26163.78943878 .00005809 00000+0 25067-3 0 9992 2 55324 40.4994 17.7218 0003095 335.6250 24.4413 15.22895512187170 HAWK-6C 1 55326U 23011C 26160.37868959 .00004206 00000+0 18395-3 0 9998 2 55326 40.4982 34.4522 0004314 308.3612 51.6810 15.22867772186660 HAWK-6A 1 55327U 23011D 26163.85440110 .00004881 00000+0 21198-3 0 9994 2 55327 40.4993 15.8058 0003541 323.3338 36.7228 15.22893204187198 HAWK-7A 1 56191U 23054P 26163.19669361 .00005639 00000+0 21343-3 0 9993 2 56191 97.2710 50.6607 0004628 67.7192 292.4537 15.27309862176263 HAWK-7B 1 56193U 23054R 26163.19660224 .00005601 00000+0 21201-3 0 9996 2 56193 97.2742 48.9234 0003929 78.0409 282.1271 15.27313104176260 HAWK-7C 1 56200U 23054Y 26163.19649751 .00005681 00000+0 21502-3 0 9999 2 56200 97.2717 49.6935 0003961 69.8219 290.3446 15.27309985176267